Flag for Portugal Weather past 2 weeks in Viseu, Portugal

Now
62 °F

Sunny.


Feels Like: 62 °F
Forecast: 54 / 82 °F
Wind: 10 mph from East

Location: Viseu

Current Time: May 25, 2015 at 11:04:36 AM

Latest Report: May 25, 2015 at 10:00 AM


Visibility: 25 mi

Pressure: 30.07 "Hg

Humidity: 56%

Dew point: 46 °F

Location of ViseuLocation

Historic Weather in Viseu — Graph

°F

Viseu temperature yesterday

Maximum temperature yesterday: 72 °F (at 4:00 PM)
Minimum temperature yesterday: 52 °F (at 6:00 AM)
Average temperature yesterday: 62 °F

Past Weeks' High & Low Weather Summary

 TemperatureHumidityPressure
High83 °F (May 11, 4:00 PM)99% (May 14, 5:00 AM)30.37 "Hg (May 14, 5:00 AM)
Low41 °F (May 15, 6:00 AM)27% (May 13, 8:00 AM)29.83 "Hg (May 18, 5:00 PM)
Average62 °F53%30.13 "Hg
* Reported May 10 9:00 AM — May 25 9:00 AM, Viseu, Weather by CustomWeather, © 2015

Note: Actual official high and low records may vary slightly from our data, if they occured in-between our weather recording intervals... More about our weather records

Advertising

Viseu weather history for previous 24 hours

 ConditionsComfort  
Time TempWeatherWind HumidityBarometerVisibility
9:00 AM
Mon, May 25
59 °FCool.10 mph63%30.08 "HgN/A
8:00 AM56 °FCool.12 mph67%30.08 "HgN/A
7:00 AM53 °FCool.12 mph72%30.10 "HgN/A
6:00 AM52 °FCool.12 mph71%30.09 "HgN/A
5:00 AM53 °FCool.12 mph68%30.08 "HgN/A
4:00 AM54 °FCool.10 mph64%30.07 "HgN/A
3:00 AM55 °FCool.10 mph61%30.07 "HgN/A
2:00 AM56 °FRefreshingly cool.9 mph57%30.06 "HgN/A
1:00 AM58 °FRefreshingly cool.9 mph51%30.05 "HgN/A
12:00 AM60 °FRefreshingly cool.9 mph47%30.04 "HgN/A
11:00 PM
Sun, May 24
62 °FRefreshingly cool.9 mph43%30.03 "HgN/A
9:00 PM64 °FMild.6 mph42%29.99 "HgN/A
8:00 PM67 °FMild.7 mph38%29.96 "HgN/A
7:00 PM69 °FMild.5 mph38%29.94 "HgN/A
6:00 PM71 °FMild.6 mph39%29.94 "HgN/A
5:00 PM70 °FMild.6 mph38%29.93 "HgN/A
4:00 PM72 °FMild.6 mph40%29.95 "HgN/A
3:00 PM71 °FMild.6 mph41%29.96 "HgN/A
2:00 PM69 °FMild.6 mph47%29.98 "HgN/A
1:00 PM67 °FMild.7 mph44%30.00 "HgN/A
12:00 PM65 °FMild.8 mph49%30.03 "HgN/A
11:00 AM62 °FMild.10 mph51%30.03 "HgN/A
Weather by CustomWeather, © 2015

See weather overviewHow to use our weather pages